TimeCDT,TemperatureF,Dew PointF,Humidity,Sea Level PressureIn,VisibilityMPH,Wind Direction,Wind SpeedMPH,Gust SpeedMPH,PrecipitationIn,Events,Conditions,WindDirDegrees,DateUTC
1:56 AM,73.0,71.1,93,29.87,9.0,Calm,Calm,-,N/A,,Mostly Cloudy,0,2013-07-25 06:56:00
2:06 AM,73.4,71.6,94,29.88,10.0,Calm,Calm,-,N/A,,Mostly Cloudy,0,2013-07-25 07:06:00
2:14 AM,73.4,71.6,94,29.87,10.0,Calm,Calm,-,N/A,,Scattered Clouds,0,2013-07-25 07:14:00
2:56 AM,72.0,70.0,93,29.86,10.0,Calm,Calm,-,N/A,,Partly Cloudy,0,2013-07-25 07:56:00
3:37 AM,71.6,69.8,94,29.89,9.0,Calm,Calm,-,N/A,,Mostly Cloudy,0,2013-07-25 08:37:00
3:56 AM,72.0,71.1,97,29.88,8.0,NW,3.5,-,N/A,,Overcast,310,2013-07-25 08:56:00
4:56 AM,73.0,71.1,93,29.89,9.0,NW,3.5,-,N/A,,Mostly Cloudy,320,2013-07-25 09:56:00
5:56 AM,72.0,70.0,93,29.91,10.0,NW,3.5,-,N/A,,Mostly Cloudy,310,2013-07-25 10:56:00
7:56 AM,75.0,71.1,87,29.93,10.0,NNW,4.6,-,N/A,,Clear,340,2013-07-25 12:56:00
8:27 AM,75.2,71.6,89,29.95,10.0,North,6.9,-,N/A,,Scattered Clouds,360,2013-07-25 13:27:00
8:56 AM,78.1,72.0,81,29.94,10.0,North,4.6,-,N/A,,Partly Cloudy,360,2013-07-25 13:56:00
9:56 AM,81.0,73.0,77,29.95,10.0,North,5.8,-,N/A,,Mostly Cloudy,10,2013-07-25 14:56:00
10:29 AM,80.6,73.4,79,29.97,10.0,Calm,Calm,-,N/A,,Partly Cloudy,0,2013-07-25 15:29:00
10:56 AM,82.9,73.0,72,29.96,10.0,Calm,Calm,-,N/A,,Partly Cloudy,0,2013-07-25 15:56:00
11:56 AM,86.0,73.9,67,29.96,10.0,Calm,Calm,-,N/A,,Partly Cloudy,0,2013-07-25 16:56:00
12:56 PM,86.0,71.1,61,29.96,10.0,Variable,3.5,-,N/A,,Mostly Cloudy,0,2013-07-25 17:56:00
1:56 PM,89.1,70.0,53,29.96,10.0,NW,6.9,-,N/A,,Scattered Clouds,320,2013-07-25 18:56:00
2:56 PM,86.0,70.0,59,29.96,10.0,NW,5.8,-,N/A,,Partly Cloudy,320,2013-07-25 19:56:00
3:56 PM,90.0,71.1,54,29.95,10.0,NNW,6.9,-,N/A,,Scattered Clouds,330,2013-07-25 20:56:00
4:56 PM,88.0,70.0,55,29.95,10.0,NNW,8.1,-,N/A,,Clear,330,2013-07-25 21:56:00
5:56 PM,87.1,70.0,57,29.96,10.0,NW,8.1,-,N/A,,Clear,320,2013-07-25 22:56:00
6:56 PM,84.9,71.1,63,29.96,10.0,NW,6.9,-,N/A,,Clear,320,2013-07-25 23:56:00
7:56 PM,82.0,71.1,69,29.97,10.0,NNW,3.5,-,N/A,,Clear,330,2013-07-26 00:56:00
8:56 PM,79.0,72.0,79,29.98,10.0,North,4.6,-,N/A,,Clear,350,2013-07-26 01:56:00
9:56 PM,78.1,71.1,79,29.99,10.0,NW,4.6,-,N/A,,Clear,320,2013-07-26 02:56:00
10:56 PM,77.0,71.1,82,29.99,10.0,Calm,Calm,-,N/A,,Clear,0,2013-07-26 03:56:00
11:56 PM,75.0,70.0,84,30.00,10.0,Calm,Calm,-,N/A,,Clear,0,2013-07-26 04:56:00